contact:dominique.lefevre@mio.osupytheas.fr, maurice.libes@osupytheas.fr, didier.mallarino@osupytheas.fr
Project:EMSO http://www.emso-fr.org/EMSO-France
Depth: 2436.0 m
Title:EMSO Ligure Ouest : Data MII capteur MICROCAT
DateTime_Computer,Latitude,Longitude,Temperature,Conductivity,Pressure,DateTime_Instrument
DateTime_Computer,Latitude,Longitude,degC,S m-1,dbar,DateTime_Instrument
2020-09-01T00:00:52Z,42.805,6.029,13.2976,4.59994,2470.053,2020-9-01T02:01:43Z
2020-09-01T00:03:56Z,42.805,6.029,13.2979,4.60001,2470.077,2020-9-01T02:04:46Z
2020-09-01T00:06:59Z,42.805,6.029,13.2979,4.59996,2470.04,2020-9-01T02:07:50Z
2020-09-01T00:10:02Z,42.805,6.029,13.2982,4.59992,2470.04,2020-9-01T02:10:53Z
2020-09-01T00:13:06Z,42.805,6.029,13.2976,4.59996,2470.053,2020-9-01T02:13:57Z
2020-09-01T00:16:07Z,42.805,6.029,13.2986,4.60010,2470.017,2020-9-01T02:16:58Z
2020-09-01T00:19:11Z,42.805,6.029,13.2975,4.60004,2470.04,2020-9-01T02:20:02Z
2020-09-01T00:22:14Z,42.805,6.029,13.2982,4.59999,2470.063,2020-9-01T02:23:05Z
2020-09-01T00:25:18Z,42.805,6.029,13.2979,4.59987,2470.063,2020-9-01T02:26:08Z
2020-09-01T00:28:21Z,42.805,6.029,13.2976,4.59991,2470.04,2020-9-01T02:29:12Z
2020-09-01T00:31:25Z,42.805,6.029,13.2976,4.59989,2470.03,2020-9-01T02:32:16Z
2020-09-01T00:34:26Z,42.805,6.029,13.2982,4.59983,2470.053,2020-9-01T02:35:17Z
2020-09-01T00:37:30Z,42.805,6.029,13.2976,4.59986,2470.017,2020-9-01T02:38:20Z
2020-09-01T00:40:33Z,42.805,6.029,13.2976,4.59985,2470.017,2020-9-01T02:41:23Z
2020-09-01T00:43:36Z,42.805,6.029,13.2975,4.59990,2470.017,2020-9-01T02:44:27Z
2020-09-01T00:46:39Z,42.805,6.029,13.2975,4.59985,2470.077,2020-9-01T02:47:30Z
2020-09-01T00:49:43Z,42.805,6.029,13.2976,4.59986,2470.04,2020-9-01T02:50:33Z
2020-09-01T00:52:47Z,42.805,6.029,13.2979,4.59986,2470.017,2020-9-01T02:53:37Z
2020-09-01T00:55:51Z,42.805,6.029,13.2974,4.59991,2470.017,2020-9-01T02:56:42Z
2020-09-01T00:58:56Z,42.805,6.029,13.2976,4.59988,2469.993,2020-9-01T02:59:47Z
2020-09-01T01:02:00Z,42.805,6.029,13.2974,4.59985,2470.017,2020-9-01T03:02:50Z
2020-09-01T01:05:03Z,42.805,6.029,13.2976,4.59994,2470.017,2020-9-01T03:05:53Z
2020-09-01T01:08:06Z,42.805,6.029,13.2977,4.59990,2470.017,2020-9-01T03:08:57Z
2020-09-01T01:11:09Z,42.805,6.029,13.2974,4.59986,2470.03,2020-9-01T03:12:00Z
2020-09-01T01:14:13Z,42.805,6.029,13.2977,4.59980,2469.993,2020-9-01T03:15:03Z
2020-09-01T01:17:17Z,42.805,6.029,13.2974,4.59990,2469.993,2020-9-01T03:18:07Z
2020-09-01T01:20:20Z,42.805,6.029,13.2979,4.59996,2470.007,2020-9-01T03:21:10Z
2020-09-01T01:23:23Z,42.805,6.029,13.2977,4.59987,2470.03,2020-9-01T03:24:14Z
2020-09-01T01:26:28Z,42.805,6.029,13.2978,4.59991,2469.956,2020-9-01T03:27:18Z
2020-09-01T01:29:31Z,42.805,6.029,13.2977,4.59996,2470.017,2020-9-01T03:30:22Z
2020-09-01T01:32:34Z,42.805,6.029,13.2976,4.59984,2470.017,2020-9-01T03:33:25Z
2020-09-01T01:35:38Z,42.805,6.029,13.2977,4.59981,2469.993,2020-9-01T03:36:28Z
2020-09-01T01:38:41Z,42.805,6.029,13.2976,4.59996,2469.97,2020-9-01T03:39:31Z
2020-09-01T01:41:44Z,42.805,6.029,13.2976,4.59986,2469.993,2020-9-01T03:42:35Z
2020-09-01T01:44:47Z,42.805,6.029,13.2981,4.60006,2469.97,2020-9-01T03:45:38Z
2020-09-01T01:47:51Z,42.805,6.029,13.2976,4.59987,2469.993,2020-9-01T03:48:41Z
2020-09-01T01:50:54Z,42.805,6.029,13.2974,4.59988,2469.993,2020-9-01T03:51:44Z
2020-09-01T01:53:57Z,42.805,6.029,13.2976,4.59986,2469.993,2020-9-01T03:54:48Z
2020-09-01T01:57:00Z,42.805,6.029,13.2976,4.59992,2470.04,2020-9-01T03:57:51Z
2020-09-01T02:00:04Z,42.805,6.029,13.2980,4.60004,2469.97,2020-9-01T04:00:54Z
2020-09-01T02:03:07Z,42.805,6.029,13.2977,4.59986,2470.007,2020-9-01T04:03:57Z
2020-09-01T02:06:10Z,42.805,6.029,13.2979,4.59996,2470.007,2020-9-01T04:07:01Z
2020-09-01T02:09:14Z,42.805,6.029,13.2977,4.59987,2469.97,2020-9-01T04:10:04Z
2020-09-01T02:12:17Z,42.805,6.029,13.2979,4.59993,2469.993,2020-9-01T04:13:07Z
2020-09-01T02:15:20Z,42.805,6.029,13.2976,4.59985,2470.007,2020-9-01T04:16:11Z
2020-09-01T02:18:23Z,42.805,6.029,13.2977,4.59992,2469.993,2020-9-01T04:19:14Z
2020-09-01T02:21:27Z,42.805,6.029,13.2976,4.59979,2469.97,2020-9-01T04:22:17Z
2020-09-01T02:24:30Z,42.805,6.029,13.2978,4.59996,2469.97,2020-9-01T04:25:20Z
2020-09-01T02:27:34Z,42.805,6.029,13.2974,4.59986,2470.017,2020-9-01T04:28:24Z
2020-09-01T02:30:37Z,42.805,6.029,13.2978,4.59996,2469.993,2020-9-01T04:31:28Z
2020-09-01T02:33:42Z,42.805,6.029,13.2977,4.59999,2469.96,2020-9-01T04:34:32Z
2020-09-01T02:36:45Z,42.805,6.029,13.2976,4.59990,2470.03,2020-9-01T04:37:36Z
2020-09-01T02:39:48Z,42.805,6.029,13.2980,4.59991,2469.97,2020-9-01T04:40:39Z
2020-09-01T02:42:53Z,42.805,6.029,13.2972,4.59986,2470.007,2020-9-01T04:43:43Z
2020-09-01T02:45:56Z,42.805,6.029,13.2976,4.59992,2469.993,2020-9-01T04:46:46Z
2020-09-01T02:48:59Z,42.805,6.029,13.2978,4.59991,2470.007,2020-9-01T04:49:49Z
2020-09-01T02:52:01Z,42.805,6.029,13.2980,4.59991,2470.017,2020-9-01T04:52:52Z
2020-09-01T02:55:06Z,42.805,6.029,13.2974,4.59997,2470.03,2020-9-01T04:55:56Z
2020-09-01T02:58:09Z,42.805,6.029,13.2977,4.59997,2470.017,2020-9-01T04:59:00Z
2020-09-01T03:01:12Z,42.805,6.029,13.2975,4.59988,2470.04,2020-9-01T05:02:03Z
2020-09-01T03:04:17Z,42.805,6.029,13.2976,4.59988,2470.017,2020-9-01T05:05:07Z
2020-09-01T03:07:20Z,42.805,6.029,13.2975,4.59983,2470.007,2020-9-01T05:08:10Z
2020-09-01T03:10:24Z,42.805,6.029,13.2977,4.59982,2469.993,2020-9-01T05:11:14Z
2020-09-01T03:13:25Z,42.805,6.029,13.2979,4.59996,2470.017,2020-9-01T05:14:15Z
2020-09-01T03:16:29Z,42.805,6.029,13.2979,4.59986,2470.017,2020-9-01T05:17:20Z
2020-09-01T03:19:31Z,42.805,6.029,13.2979,4.59991,2470.017,2020-9-01T05:20:22Z
2020-09-01T03:22:35Z,42.805,6.029,13.2975,4.59987,2470.03,2020-9-01T05:23:26Z
2020-09-01T03:25:37Z,42.805,6.029,13.2978,4.59986,2470.077,2020-9-01T05:26:27Z
2020-09-01T03:28:41Z,42.805,6.029,13.2975,4.59984,2470.03,2020-9-01T05:29:32Z
2020-09-01T03:31:45Z,42.805,6.029,13.2976,4.59989,2470.017,2020-9-01T05:32:35Z
2020-09-01T03:34:48Z,42.805,6.029,13.2978,4.59992,2470.053,2020-9-01T05:35:38Z
2020-09-01T03:37:51Z,42.805,6.029,13.2983,4.59994,2470.063,2020-9-01T05:38:42Z
2020-09-01T03:40:55Z,42.805,6.029,13.2974,4.59983,2470.077,2020-9-01T05:41:45Z
2020-09-01T03:43:58Z,42.805,6.029,13.2977,4.59985,2470.04,2020-9-01T05:44:48Z
2020-09-01T03:47:01Z,42.805,6.029,13.2977,4.59982,2470.063,2020-9-01T05:47:52Z
2020-09-01T03:50:05Z,42.805,6.029,13.2974,4.59982,2470.053,2020-9-01T05:50:55Z
2020-09-01T03:53:09Z,42.805,6.029,13.2978,4.59986,2470.053,2020-9-01T05:53:59Z
2020-09-01T03:56:10Z,42.805,6.029,13.2980,4.60005,2470.063,2020-9-01T05:57:01Z
2020-09-01T03:59:15Z,42.805,6.029,13.2976,4.59991,2470.077,2020-9-01T06:00:06Z
2020-09-01T04:02:18Z,42.805,6.029,13.2982,4.59996,2470.077,2020-9-01T06:03:09Z
2020-09-01T04:05:21Z,42.805,6.029,13.2979,4.59988,2470.04,2020-9-01T06:06:12Z
2020-09-01T04:08:25Z,42.805,6.029,13.2973,4.59988,2470.063,2020-9-01T06:09:16Z
2020-09-01T04:11:29Z,42.805,6.029,13.2982,4.59988,2470.063,2020-9-01T06:12:20Z
2020-09-01T04:14:33Z,42.805,6.029,13.2976,4.59992,2470.063,2020-9-01T06:15:23Z
2020-09-01T04:17:36Z,42.805,6.029,13.2979,4.59990,2470.077,2020-9-01T06:18:27Z
2020-09-01T04:20:40Z,42.805,6.029,13.2978,4.59992,2470.087,2020-9-01T06:21:31Z
2020-09-01T04:23:45Z,42.805,6.029,13.2974,4.59986,2470.063,2020-9-01T06:24:35Z
2020-09-01T04:26:48Z,42.805,6.029,13.2982,4.59992,2470.077,2020-9-01T06:27:39Z
2020-09-01T04:29:52Z,42.805,6.029,13.2975,4.59991,2470.063,2020-9-01T06:30:43Z
2020-09-01T04:32:56Z,42.805,6.029,13.2976,4.59983,2470.073,2020-9-01T06:33:47Z
2020-09-01T04:36:00Z,42.805,6.029,13.2975,4.59991,2470.1,2020-9-01T06:36:50Z
2020-09-01T04:39:04Z,42.805,6.029,13.2977,4.59988,2470.087,2020-9-01T06:39:55Z
2020-09-01T04:42:08Z,42.805,6.029,13.2976,4.59988,2470.1,2020-9-01T06:42:58Z
2020-09-01T04:45:11Z,42.805,6.029,13.2976,4.59986,2470.11,2020-9-01T06:46:02Z
2020-09-01T04:48:12Z,42.805,6.029,13.2982,4.59992,2470.124,2020-9-01T06:49:03Z
2020-09-01T04:51:16Z,42.805,6.029,13.2976,4.59981,2470.1,2020-9-01T06:52:06Z
2020-09-01T04:54:19Z,42.805,6.029,13.2978,4.59989,2470.087,2020-9-01T06:55:09Z
2020-09-01T04:57:23Z,42.805,6.029,13.2976,4.59983,2470.124,2020-9-01T06:58:14Z
2020-09-01T05:00:28Z,42.805,6.029,13.2979,4.59994,2470.124,2020-9-01T07:01:19Z
2020-09-01T05:03:32Z,42.805,6.029,13.2982,4.59991,2470.1,2020-9-01T07:04:22Z
2020-09-01T05:06:37Z,42.805,6.029,13.2981,4.59984,2470.11,2020-9-01T07:07:27Z
2020-09-01T05:09:40Z,42.805,6.029,13.2978,4.59987,2470.087,2020-9-01T07:10:31Z
2020-09-01T05:12:45Z,42.805,6.029,13.2974,4.59985,2470.124,2020-9-01T07:13:36Z
2020-09-01T05:15:46Z,42.805,6.029,13.2982,4.59993,2470.087,2020-9-01T07:16:37Z
2020-09-01T05:18:49Z,42.805,6.029,13.2977,4.59991,2470.087,2020-9-01T07:19:40Z
2020-09-01T05:21:53Z,42.805,6.029,13.2976,4.59998,2470.1,2020-9-01T07:22:43Z
2020-09-01T05:24:56Z,42.805,6.029,13.2982,4.59986,2470.11,2020-9-01T07:25:47Z
2020-09-01T05:28:01Z,42.805,6.029,13.2978,4.59986,2470.087,2020-9-01T07:28:51Z
2020-09-01T05:31:04Z,42.805,6.029,13.2971,4.59983,2470.11,2020-9-01T07:31:55Z
2020-09-01T05:34:07Z,42.805,6.029,13.2975,4.59986,2470.087,2020-9-01T07:34:58Z
2020-09-01T05:37:12Z,42.805,6.029,13.2978,4.59986,2470.133,2020-9-01T07:38:02Z
2020-09-01T05:40:15Z,42.805,6.029,13.2980,4.59986,2470.124,2020-9-01T07:41:05Z
2020-09-01T05:43:18Z,42.805,6.029,13.2982,4.59986,2470.124,2020-9-01T07:44:09Z
2020-09-01T05:46:21Z,42.805,6.029,13.2982,4.59989,2470.147,2020-9-01T07:47:12Z
2020-09-01T05:49:25Z,42.805,6.029,13.2974,4.59988,2470.147,2020-9-01T07:50:15Z
2020-09-01T05:52:28Z,42.805,6.029,13.2979,4.59991,2470.133,2020-9-01T07:53:18Z
2020-09-01T05:55:31Z,42.805,6.029,13.2974,4.59983,2470.124,2020-9-01T07:56:22Z
2020-09-01T05:58:35Z,42.805,6.029,13.2976,4.59983,2470.133,2020-9-01T07:59:25Z
2020-09-01T06:01:38Z,42.805,6.029,13.2974,4.59982,2470.124,2020-9-01T08:02:28Z
2020-09-01T06:04:39Z,42.805,6.029,13.2979,4.59983,2470.171,2020-9-01T08:05:30Z
2020-09-01T06:07:44Z,42.805,6.029,13.2979,4.59989,2470.124,2020-9-01T08:08:34Z
2020-09-01T06:10:47Z,42.805,6.029,13.2978,4.59996,2470.147,2020-9-01T08:11:38Z
2020-09-01T06:13:50Z,42.805,6.029,13.2979,4.59990,2470.11,2020-9-01T08:14:41Z
2020-09-01T06:16:55Z,42.805,6.029,13.2980,4.59984,2470.11,2020-9-01T08:17:45Z
2020-09-01T06:19:58Z,42.805,6.029,13.2977,4.59983,2470.147,2020-9-01T08:20:49Z
2020-09-01T06:23:02Z,42.805,6.029,13.2981,4.59989,2470.133,2020-9-01T08:23:53Z
2020-09-01T06:26:07Z,42.805,6.029,13.2974,4.59994,2470.133,2020-9-01T08:26:58Z
2020-09-01T06:29:12Z,42.805,6.029,13.2978,4.59990,2470.11,2020-9-01T08:30:03Z
2020-09-01T06:32:15Z,42.805,6.029,13.2979,4.59988,2470.147,2020-9-01T08:33:06Z
2020-09-01T06:35:19Z,42.805,6.029,13.2981,4.59990,2470.124,2020-9-01T08:36:09Z
2020-09-01T06:38:23Z,42.805,6.029,13.2979,4.59991,2470.1,2020-9-01T08:39:14Z
2020-09-01T06:41:25Z,42.805,6.029,13.2978,4.59986,2470.11,2020-9-01T08:42:15Z
2020-09-01T06:44:28Z,42.805,6.029,13.2975,4.59983,2470.194,2020-9-01T08:45:18Z
2020-09-01T06:47:31Z,42.805,6.029,13.2977,4.60000,2470.11,2020-9-01T08:48:22Z
2020-09-01T06:50:34Z,42.805,6.029,13.2986,4.60002,2470.133,2020-9-01T08:51:25Z
2020-09-01T06:53:38Z,42.805,6.029,13.2974,4.59984,2470.133,2020-9-01T08:54:29Z
2020-09-01T06:56:41Z,42.805,6.029,13.2981,4.59986,2470.133,2020-9-01T08:57:32Z
2020-09-01T06:59:45Z,42.805,6.029,13.2977,4.59987,2470.147,2020-9-01T09:00:36Z
2020-09-01T07:02:49Z,42.805,6.029,13.2981,4.59987,2470.11,2020-9-01T09:03:39Z
2020-09-01T07:05:51Z,42.805,6.029,13.2978,4.59992,2470.11,2020-9-01T09:06:42Z
2020-09-01T07:08:55Z,42.805,6.029,13.2976,4.59986,2470.133,2020-9-01T09:09:46Z
2020-09-01T07:11:59Z,42.805,6.029,13.2982,4.59986,2470.11,2020-9-01T09:12:49Z
2020-09-01T07:15:03Z,42.805,6.029,13.2978,4.59989,2470.1,2020-9-01T09:15:53Z
2020-09-01T07:18:06Z,42.805,6.029,13.2976,4.59986,2470.124,2020-9-01T09:18:57Z
2020-09-01T07:21:10Z,42.805,6.029,13.2980,4.59988,2470.11,2020-9-01T09:22:00Z
2020-09-01T07:24:13Z,42.805,6.029,13.2982,4.59988,2470.124,2020-9-01T09:25:04Z
2020-09-01T07:27:17Z,42.805,6.029,13.2976,4.59986,2470.147,2020-9-01T09:28:07Z
2020-09-01T07:30:20Z,42.805,6.029,13.2984,4.60006,2470.11,2020-9-01T09:31:10Z
2020-09-01T07:33:24Z,42.805,6.029,13.2981,4.59997,2470.147,2020-9-01T09:34:15Z
2020-09-01T07:36:29Z,42.805,6.029,13.2979,4.59986,2470.11,2020-9-01T09:37:19Z
2020-09-01T07:39:32Z,42.805,6.029,13.2987,4.60003,2470.133,2020-9-01T09:40:23Z
2020-09-01T07:42:36Z,42.805,6.029,13.2982,4.59999,2470.11,2020-9-01T09:43:27Z
2020-09-01T07:45:41Z,42.805,6.029,13.2987,4.59992,2470.11,2020-9-01T09:46:32Z
2020-09-01T07:48:45Z,42.805,6.029,13.2979,4.59986,2470.087,2020-9-01T09:49:35Z
2020-09-01T07:51:48Z,42.805,6.029,13.2982,4.59995,2470.124,2020-9-01T09:52:38Z
2020-09-01T07:54:49Z,42.805,6.029,13.2980,4.59986,2470.087,2020-9-01T09:55:40Z
2020-09-01T07:57:53Z,42.805,6.029,13.2986,4.59997,2470.087,2020-9-01T09:58:44Z
2020-09-01T08:00:56Z,42.805,6.029,13.2976,4.59991,2470.124,2020-9-01T10:01:47Z
2020-09-01T08:04:00Z,42.805,6.029,13.2976,4.59987,2470.11,2020-9-01T10:04:51Z
2020-09-01T08:07:03Z,42.805,6.029,13.2977,4.59989,2470.124,2020-9-01T10:07:54Z
2020-09-01T08:10:07Z,42.805,6.029,13.2982,4.59991,2470.1,2020-9-01T10:10:57Z
2020-09-01T08:13:10Z,42.805,6.029,13.2981,4.60001,2470.11,2020-9-01T10:14:01Z
2020-09-01T08:16:14Z,42.805,6.029,13.2979,4.59992,2470.124,2020-9-01T10:17:04Z
2020-09-01T08:19:17Z,42.805,6.029,13.2979,4.59996,2470.124,2020-9-01T10:20:08Z
2020-09-01T08:22:21Z,42.805,6.029,13.2983,4.59999,2470.087,2020-9-01T10:23:11Z
2020-09-01T08:25:24Z,42.805,6.029,13.2981,4.60002,2470.147,2020-9-01T10:26:15Z
2020-09-01T08:28:27Z,42.805,6.029,13.2975,4.59983,2470.087,2020-9-01T10:29:18Z
2020-09-01T08:31:31Z,42.805,6.029,13.2979,4.59991,2470.124,2020-9-01T10:32:21Z
2020-09-01T08:34:35Z,42.805,6.029,13.2979,4.59996,2470.087,2020-9-01T10:35:26Z
2020-09-01T08:37:39Z,42.805,6.029,13.2979,4.59997,2470.087,2020-9-01T10:38:29Z
2020-09-01T08:40:42Z,42.805,6.029,13.2976,4.59999,2470.063,2020-9-01T10:41:33Z
2020-09-01T08:43:44Z,42.805,6.029,13.2982,4.59993,2470.087,2020-9-01T10:44:34Z
2020-09-01T08:46:48Z,42.805,6.029,13.2982,4.60005,2470.11,2020-9-01T10:47:38Z
2020-09-01T08:49:52Z,42.805,6.029,13.2983,4.60005,2470.1,2020-9-01T10:50:43Z
2020-09-01T08:52:56Z,42.805,6.029,13.2982,4.59994,2470.087,2020-9-01T10:53:46Z
2020-09-01T08:55:59Z,42.805,6.029,13.2977,4.59987,2470.087,2020-9-01T10:56:50Z
2020-09-01T08:59:03Z,42.805,6.029,13.2982,4.60008,2470.124,2020-9-01T10:59:53Z
2020-09-01T09:02:04Z,42.805,6.029,13.2979,4.59986,2470.087,2020-9-01T11:02:54Z
2020-09-01T09:05:07Z,42.805,6.029,13.2979,4.59993,2470.1,2020-9-01T11:05:58Z
2020-09-01T09:08:11Z,42.805,6.029,13.2986,4.60010,2470.087,2020-9-01T11:09:02Z
2020-09-01T09:11:15Z,42.805,6.029,13.2976,4.59994,2470.063,2020-9-01T11:12:05Z
2020-09-01T09:14:18Z,42.805,6.029,13.2979,4.59987,2470.077,2020-9-01T11:15:09Z
2020-09-01T09:17:22Z,42.805,6.029,13.2986,4.59989,2470.063,2020-9-01T11:18:13Z
2020-09-01T09:20:26Z,42.805,6.029,13.2983,4.60002,2470.087,2020-9-01T11:21:16Z
2020-09-01T09:23:28Z,42.805,6.029,13.2978,4.59991,2470.087,2020-9-01T11:24:18Z
2020-09-01T09:26:33Z,42.805,6.029,13.2978,4.59991,2470.063,2020-9-01T11:27:23Z
2020-09-01T09:29:35Z,42.805,6.029,13.2978,4.59984,2470.053,2020-9-01T11:30:25Z
2020-09-01T09:32:38Z,42.805,6.029,13.2979,4.59999,2470.077,2020-9-01T11:33:29Z
2020-09-01T09:35:41Z,42.805,6.029,13.2984,4.59996,2470.063,2020-9-01T11:36:32Z
2020-09-01T09:38:46Z,42.805,6.029,13.2979,4.60002,2470.063,2020-9-01T11:39:37Z
2020-09-01T09:41:49Z,42.805,6.029,13.2982,4.59987,2470.1,2020-9-01T11:42:39Z
2020-09-01T09:44:53Z,42.805,6.029,13.2982,4.60001,2470.04,2020-9-01T11:45:43Z
2020-09-01T09:47:58Z,42.805,6.029,13.2979,4.60000,2470.077,2020-9-01T11:48:48Z
2020-09-01T09:51:01Z,42.805,6.029,13.2972,4.59984,2470.053,2020-9-01T11:51:52Z
2020-09-01T09:54:05Z,42.805,6.029,13.2983,4.60005,2470.077,2020-9-01T11:54:55Z
2020-09-01T09:57:08Z,42.805,6.029,13.2986,4.60001,2470.04,2020-9-01T11:57:58Z
2020-09-01T10:00:11Z,42.805,6.029,13.2982,4.59991,2470.017,2020-9-01T12:01:02Z
2020-09-01T10:03:12Z,42.805,6.029,13.2979,4.59994,2470.04,2020-9-01T12:04:03Z
2020-09-01T10:06:17Z,42.805,6.029,13.2986,4.60020,2470.04,2020-9-01T12:07:07Z
2020-09-01T10:09:20Z,42.805,6.029,13.2982,4.60014,2470.053,2020-9-01T12:10:11Z
2020-09-01T10:12:23Z,42.805,6.029,13.2991,4.60011,2470.017,2020-9-01T12:13:14Z
2020-09-01T10:15:28Z,42.805,6.029,13.2984,4.60009,2470.03,2020-9-01T12:16:19Z
2020-09-01T10:18:29Z,42.805,6.029,13.2982,4.60004,2470.1,2020-9-01T12:19:20Z
2020-09-01T10:21:31Z,42.805,6.029,13.2980,4.59999,2470.053,2020-9-01T12:22:21Z
2020-09-01T10:24:34Z,42.805,6.029,13.2983,4.59997,2470.053,2020-9-01T12:25:25Z
2020-09-01T10:27:38Z,42.805,6.029,13.2979,4.59999,2470.017,2020-9-01T12:28:29Z
2020-09-01T10:30:41Z,42.805,6.029,13.2977,4.60009,2470.053,2020-9-01T12:31:32Z
2020-09-01T10:33:45Z,42.805,6.029,13.2975,4.60010,2470.053,2020-9-01T12:34:35Z
2020-09-01T10:36:48Z,42.805,6.029,13.2976,4.59995,2470.04,2020-9-01T12:37:39Z
2020-09-01T10:39:52Z,42.805,6.029,13.2986,4.59993,2470.03,2020-9-01T12:40:42Z
2020-09-01T10:42:55Z,42.805,6.029,13.2991,4.59999,2470.053,2020-9-01T12:43:45Z
2020-09-01T10:45:58Z,42.805,6.029,13.2979,4.60015,2470.017,2020-9-01T12:46:49Z
2020-09-01T10:49:01Z,42.805,6.029,13.2981,4.60013,2470.03,2020-9-01T12:49:52Z
2020-09-01T10:52:05Z,42.805,6.029,13.2981,4.60013,2470.04,2020-9-01T12:52:55Z
2020-09-01T10:55:08Z,42.805,6.029,13.2980,4.60001,2470.053,2020-9-01T12:55:59Z
2020-09-01T10:58:11Z,42.805,6.029,13.2992,4.60027,2470.017,2020-9-01T12:59:02Z
2020-09-01T11:01:15Z,42.805,6.029,13.2980,4.60003,2470.017,2020-9-01T13:02:05Z
2020-09-01T11:04:19Z,42.805,6.029,13.2983,4.60016,2470.03,2020-9-01T13:05:10Z
2020-09-01T11:07:23Z,42.805,6.029,13.2981,4.59995,2470.04,2020-9-01T13:08:13Z
2020-09-01T11:10:26Z,42.805,6.029,13.2993,4.60008,2470.03,2020-9-01T13:11:17Z
2020-09-01T11:13:29Z,42.805,6.029,13.2981,4.60000,2470.04,2020-9-01T13:14:20Z
2020-09-01T11:16:33Z,42.805,6.029,13.2980,4.59996,2469.993,2020-9-01T13:17:24Z
2020-09-01T11:19:36Z,42.805,6.029,13.2990,4.60026,2470.04,2020-9-01T13:20:27Z
2020-09-01T11:22:40Z,42.805,6.029,13.2982,4.60010,2470.04,2020-9-01T13:23:30Z
2020-09-01T11:25:43Z,42.805,6.029,13.2987,4.60027,2470.017,2020-9-01T13:26:33Z
2020-09-01T11:28:46Z,42.805,6.029,13.2979,4.60016,2470.03,2020-9-01T13:29:37Z
2020-09-01T11:31:49Z,42.805,6.029,13.3006,4.60010,2470.017,2020-9-01T13:32:40Z
2020-09-01T11:34:53Z,42.805,6.029,13.2982,4.60016,2470.007,2020-9-01T13:35:43Z
2020-09-01T11:37:56Z,42.805,6.029,13.2988,4.60019,2470.03,2020-9-01T13:38:47Z
2020-09-01T11:41:00Z,42.805,6.029,13.2984,4.60003,2470.007,2020-9-01T13:41:51Z
2020-09-01T11:44:05Z,42.805,6.029,13.2986,4.59997,2470.017,2020-9-01T13:44:55Z
2020-09-01T11:47:10Z,42.805,6.029,13.2979,4.59999,2469.993,2020-9-01T13:48:00Z
2020-09-01T11:50:12Z,42.805,6.029,13.2991,4.60033,2470.03,2020-9-01T13:51:02Z
2020-09-01T11:53:15Z,42.805,6.029,13.2992,4.60029,2469.97,2020-9-01T13:54:06Z
2020-09-01T11:56:20Z,42.805,6.029,13.2982,4.60002,2469.97,2020-9-01T13:57:10Z
2020-09-01T11:59:24Z,42.805,6.029,13.2987,4.60016,2469.993,2020-9-01T14:00:15Z
2020-09-01T12:02:27Z,42.805,6.029,13.2994,4.60031,2470.03,2020-9-01T14:03:18Z
2020-09-01T12:05:30Z,42.805,6.029,13.2996,4.60026,2469.993,2020-9-01T14:06:21Z
2020-09-01T12:08:34Z,42.805,6.029,13.2986,4.59998,2469.993,2020-9-01T14:09:24Z
2020-09-01T12:11:38Z,42.805,6.029,13.2987,4.59998,2469.97,2020-9-01T14:12:28Z
2020-09-01T12:14:42Z,42.805,6.029,13.2982,4.59994,2469.984,2020-9-01T14:15:33Z
2020-09-01T12:17:44Z,42.805,6.029,13.2983,4.59999,2469.97,2020-9-01T14:18:34Z
2020-09-01T12:20:48Z,42.805,6.029,13.2979,4.60010,2469.984,2020-9-01T14:21:39Z
2020-09-01T12:23:52Z,42.805,6.029,13.2976,4.59997,2469.984,2020-9-01T14:24:42Z
2020-09-01T12:26:56Z,42.805,6.029,13.2983,4.59998,2469.97,2020-9-01T14:27:47Z
2020-09-01T12:29:59Z,42.805,6.029,13.2980,4.59997,2470.007,2020-9-01T14:30:50Z
2020-09-01T12:33:02Z,42.805,6.029,13.2981,4.59992,2469.97,2020-9-01T14:33:53Z
2020-09-01T12:36:05Z,42.805,6.029,13.2981,4.59999,2470.007,2020-9-01T14:36:56Z
2020-09-01T12:39:09Z,42.805,6.029,13.2988,4.60021,2469.97,2020-9-01T14:39:59Z
2020-09-01T12:42:13Z,42.805,6.029,13.2990,4.60004,2469.97,2020-9-01T14:43:04Z
2020-09-01T12:45:17Z,42.805,6.029,13.2979,4.59998,2470.007,2020-9-01T14:46:07Z
2020-09-01T12:48:20Z,42.805,6.029,13.2982,4.60001,2469.97,2020-9-01T14:49:10Z
2020-09-01T12:51:22Z,42.805,6.029,13.2980,4.59996,2469.984,2020-9-01T14:52:12Z
2020-09-01T12:54:25Z,42.805,6.029,13.2984,4.59996,2470.007,2020-9-01T14:55:15Z
2020-09-01T12:57:28Z,42.805,6.029,13.2982,4.60001,2469.96,2020-9-01T14:58:19Z
2020-09-01T13:00:31Z,42.805,6.029,13.2982,4.59994,2469.96,2020-9-01T15:01:22Z
2020-09-01T13:03:35Z,42.805,6.029,13.2990,4.60014,2469.984,2020-9-01T15:04:26Z
2020-09-01T13:06:40Z,42.805,6.029,13.2982,4.60001,2470.007,2020-9-01T15:07:30Z
2020-09-01T13:09:43Z,42.805,6.029,13.2982,4.60015,2469.984,2020-9-01T15:10:34Z
2020-09-01T13:12:46Z,42.805,6.029,13.2977,4.60022,2469.937,2020-9-01T15:13:37Z
2020-09-01T13:15:50Z,42.805,6.029,13.2983,4.60003,2469.984,2020-9-01T15:16:41Z
2020-09-01T13:18:52Z,42.805,6.029,13.2979,4.59993,2469.97,2020-9-01T15:19:42Z
2020-09-01T13:21:55Z,42.805,6.029,13.2985,4.60000,2469.993,2020-9-01T15:22:46Z
2020-09-01T13:24:58Z,42.805,6.029,13.2981,4.59999,2469.984,2020-9-01T15:25:49Z
2020-09-01T13:28:02Z,42.805,6.029,13.2983,4.60009,2469.97,2020-9-01T15:28:52Z
2020-09-01T13:31:05Z,42.805,6.029,13.2989,4.60021,2470.017,2020-9-01T15:31:55Z
2020-09-01T13:34:08Z,42.805,6.029,13.2986,4.60014,2469.984,2020-9-01T15:34:59Z
2020-09-01T13:37:11Z,42.805,6.029,13.2982,4.60004,2469.947,2020-9-01T15:38:02Z
2020-09-01T13:40:15Z,42.805,6.029,13.2982,4.60012,2469.97,2020-9-01T15:41:05Z
2020-09-01T13:43:18Z,42.805,6.029,13.2982,4.60006,2469.97,2020-9-01T15:44:08Z
2020-09-01T13:46:22Z,42.805,6.029,13.2989,4.60010,2469.97,2020-9-01T15:47:13Z
2020-09-01T13:49:24Z,42.805,6.029,13.2986,4.60019,2469.984,2020-9-01T15:50:14Z
2020-09-01T13:52:28Z,42.805,6.029,13.2989,4.60011,2469.937,2020-9-01T15:53:19Z
2020-09-01T13:55:31Z,42.805,6.029,13.2990,4.60019,2470.03,2020-9-01T15:56:22Z
2020-09-01T13:58:35Z,42.805,6.029,13.2979,4.60003,2469.984,2020-9-01T15:59:26Z
2020-09-01T14:01:40Z,42.805,6.029,13.2982,4.60001,2469.97,2020-9-01T16:02:31Z
2020-09-01T14:04:44Z,42.805,6.029,13.2986,4.60031,2469.984,2020-9-01T16:05:34Z
2020-09-01T14:07:47Z,42.805,6.029,13.2993,4.60029,2469.984,2020-9-01T16:08:37Z
2020-09-01T14:10:49Z,42.805,6.029,13.2984,4.60011,2469.993,2020-9-01T16:11:39Z
2020-09-01T14:13:51Z,42.805,6.029,13.2990,4.60021,2469.993,2020-9-01T16:14:42Z
2020-09-01T14:16:52Z,42.805,6.029,13.2994,4.60017,2469.956,2020-9-01T16:17:43Z
2020-09-01T14:19:53Z,42.805,6.029,13.2982,4.60016,2470.007,2020-9-01T16:20:44Z
2020-09-01T14:22:57Z,42.805,6.029,13.2979,4.60003,2469.97,2020-9-01T16:23:48Z
2020-09-01T14:26:02Z,42.805,6.029,13.2981,4.60011,2469.993,2020-9-01T16:26:53Z
2020-09-01T14:29:05Z,42.805,6.029,13.2983,4.60010,2470.007,2020-9-01T16:29:56Z
2020-09-01T14:32:09Z,42.805,6.029,13.2993,4.60033,2469.984,2020-9-01T16:32:59Z
2020-09-01T14:35:12Z,42.805,6.029,13.2989,4.60019,2469.993,2020-9-01T16:36:03Z
2020-09-01T14:38:16Z,42.805,6.029,13.2982,4.60019,2469.97,2020-9-01T16:39:07Z
2020-09-01T14:41:21Z,42.805,6.029,13.2984,4.60019,2470.017,2020-9-01T16:42:12Z
2020-09-01T14:44:25Z,42.805,6.029,13.2984,4.60026,2470.007,2020-9-01T16:45:16Z
2020-09-01T14:47:29Z,42.805,6.029,13.2988,4.60026,2470.03,2020-9-01T16:48:19Z
2020-09-01T14:50:32Z,42.805,6.029,13.2992,4.60032,2470.053,2020-9-01T16:51:22Z
2020-09-01T14:53:35Z,42.805,6.029,13.2988,4.60041,2470.03,2020-9-01T16:54:26Z
2020-09-01T14:56:38Z,42.805,6.029,13.2981,4.60011,2470.017,2020-9-01T16:57:29Z
2020-09-01T14:59:40Z,42.805,6.029,13.2980,4.60006,2470.017,2020-9-01T17:00:30Z
2020-09-01T15:02:41Z,42.805,6.029,13.2990,4.60014,2470.017,2020-9-01T17:03:31Z
2020-09-01T15:05:44Z,42.805,6.029,13.2989,4.60022,2470.03,2020-9-01T17:06:35Z
2020-09-01T15:08:45Z,42.805,6.029,13.2998,4.60017,2470.053,2020-9-01T17:09:36Z
2020-09-01T15:11:46Z,42.805,6.029,13.2988,4.60015,2470.077,2020-9-01T17:12:37Z
2020-09-01T15:14:50Z,42.805,6.029,13.2977,4.60027,2470.03,2020-9-01T17:15:40Z